This is the latest recevied weather packets stored in our database for station/object K9TLD. If no packets are shown the sender has not sent any weather packets the latest 1 day(s).
| Time | Temp. | Humidity | Pressure | Rain* | Wind** | Luminosity | Snow |
|---|---|---|---|---|---|---|---|
| 1778029531 | 10° C | 43% | 1011 hPa | 0 mm | - | 1 W/m² | - |
| 1778029226 | 10° C | 43% | 1011.1 hPa | 0 mm | - | 1 W/m² | - |
| 1778028924 | 10° C | 43% | 1010.8 hPa | 0 mm | - | 2 W/m² | - |
| 1778028317 | 10.56° C | 42% | 1010.9 hPa | 0 mm | - | 5 W/m² | - |
| 1778028014 | 10.56° C | 42% | 1010.7 hPa | 0 mm | - | 8 W/m² | - |
| 1778027710 | 10.56° C | 40% | 1010.8 hPa | 0 mm | - | 11 W/m² | - |
| 1778027406 | 11.11° C | 41% | 1010.6 hPa | 0 mm | - | 15 W/m² | - |
| 1778026192 | 12.22° C | 38% | 1010.8 hPa | 0 mm | - | 31 W/m² | - |
| 1778024375 | 13.33° C | 37% | 1010.4 hPa | 0 mm | - | 61 W/m² | - |
| 1778024073 | 13.89° C | 35% | 1010.2 hPa | 0 mm | - | 83 W/m² | - |
| 1778023770 | 13.89° C | 35% | 1010.3 hPa | 0 mm | - | 75 W/m² | - |
| 1778022862 | 13.33° C | 36% | 1010.2 hPa | 0 mm | - | 91 W/m² | - |
| 1778021954 | 14.44° C | 34% | 1010.2 hPa | 0 mm | - | 188 W/m² | - |
| 1778021352 | 15° C | 33% | 1010.1 hPa | 0 mm | - | 217 W/m² | - |
| 1778021050 | 14.44° C | 35% | 1010 hPa | 0 mm | - | 217 W/m² | - |
| 1778019836 | 15° C | 33% | 1009.9 hPa | 0 mm | - | 256 W/m² | - |
| 1778015292 | 16.11° C | 33% | 1009.7 hPa | 0 mm | - | 445 W/m² | - |
| 1778012261 | 15.56° C | 31% | 1009.4 hPa | 0 mm | - | 577 W/m² | - |
| 1778009534 | 15.56° C | 36% | 1009.6 hPa | 0 mm | - | 685 W/m² | - |
| 1778008628 | 15° C | 35% | 1009.3 hPa | 0 mm | - | 651 W/m² | - |
| 1778008326 | 15° C | 36% | 1009.3 hPa | 0 mm | - | 725 W/m² | - |
| 1778007716 | 14.44° C | 34% | 1009.2 hPa | 0 mm | - | 676 W/m² | - |
* Rain latest hour (hover to see other rain measurements)
** Current wind speed in m/s (hover to see current wind gust speed)